Weather History for Crestview, FL

Change the Weather History Date:

Sunday, February 10, 2013

  Actual Average Record
Temperature  
Mean Temperature 56 °F -  
Max Temperature 71 °F 62 °F 79 °F (1999)
Min Temperature 42 °F 37 °F 20 °F (1979)
Degree Days  
Heating Degree Days 8    
Growing Degree Days 6 (Base 50)    
Moisture  
Dew Point 57 °F    
Average Humidity 86    
Maximum Humidity 94    
Minimum Humidity 75    
Precipitation  
Precipitation 0.00 in - - ()
Sea Level Pressure  
Sea Level Pressure 30.12 in    
Wind  
Wind Speed 7 mph (SE)    
Max Wind Speed 18 mph    
Max Gust Speed 37 mph    
Visibility 10 miles    
Events Rain , Thunderstorm    
Averages and records for this station are not official NWS values.
T = Trace of Precipitation, MM = Missing Value Source: NWS Daily Summary

Daily Weather History Graph

Daily Weather History Graph

Search for Another Location

Airport:

Trip Planner

Search our weather history database for the weather conditions in past years. The results will help you decide how hot, cold, wet, or windy it might be!

Date:

Astronomy

Feb. 10, 2013 Rise Set
Actual Time 6:30 AM CST 5:30 PM CST
Civil Twilight 6:06 AM CST 5:54 PM CST
Nautical Twilight 5:37 AM CST 6:23 PM CST
Astronomical Twilight 5:09 AM CST 6:51 PM CST
Moon 6:25 AM CST (2/10) 6:13 PM CST (2/10)
Length of Visible Light 11h 48m
Length of Day
10h 59m
New Moon, 0% of the Moon is Illuminated
Feb 10
New Moon
Feb 17
First Quarter
Feb 25
Full
Mar 4
Last Quarter
Mar 11
New

Hourly Weather History & Observations

Time (CST) Temp. Windchill Dew Point Humidity Pressure Visibility Wind Dir Wind Speed Gust Speed Precip Events Conditions
12:53 AM 43.0 °F - 41.0 °F 93% 30.18 in 10.0 mi Calm Calm - N/A   Clear
1:53 AM 43.0 °F - 39.9 °F 89% 30.17 in 10.0 mi Calm Calm - N/A   Clear
2:53 AM 42.1 °F - 39.9 °F 92% 30.16 in 10.0 mi Calm Calm - N/A   Clear
3:53 AM 45.0 °F 43.5 °F 43.0 °F 93% 30.18 in 10.0 mi East 3.5 mph - N/A   Clear
4:22 AM 46.4 °F 44.3 °F 44.6 °F 93% 30.18 in 10.0 mi East 4.6 mph - N/A   Mostly Cloudy
4:45 AM 46.4 °F 44.3 °F 44.6 °F 93% 30.17 in 10.0 mi East 4.6 mph - N/A   Scattered Clouds
4:53 AM 46.9 °F - 45.0 °F 93% 30.17 in 10.0 mi ENE 4.6 mph - N/A   Partly Cloudy
5:53 AM 48.0 °F - 46.0 °F 93% 30.17 in 10.0 mi East 4.6 mph - N/A   Clear
6:53 AM 51.1 °F - 48.0 °F 89% 30.15 in 10.0 mi ESE 6.9 mph - N/A   Clear
7:53 AM 55.0 °F - 50.0 °F 83% 30.16 in 10.0 mi ESE 6.9 mph 25.3 mph N/A   Clear
8:35 AM 59.0 °F - 53.6 °F 82% 30.19 in 10.0 mi ESE 5.8 mph 23.0 mph N/A   Mostly Cloudy
8:53 AM 61.0 °F - 54.0 °F 78% 30.19 in 10.0 mi SE 9.2 mph 17.3 mph N/A   Overcast
9:41 AM 62.6 °F - 55.4 °F 77% 30.19 in 10.0 mi SE 11.5 mph 19.6 mph N/A   Overcast
9:53 AM 63.0 °F - 55.0 °F 75% 30.18 in 10.0 mi SE 11.5 mph 21.9 mph N/A   Overcast
10:53 AM 66.0 °F - 57.9 °F 75% 30.17 in 10.0 mi SE 13.8 mph 23.0 mph N/A   Overcast
11:53 AM 68.0 °F - 60.1 °F 76% 30.13 in 10.0 mi SSE 16.1 mph 29.9 mph N/A   Overcast
12:53 PM 68.0 °F - 61.0 °F 78% 30.09 in 10.0 mi SE 17.3 mph 26.5 mph N/A   Overcast
1:53 PM 69.1 °F - 62.1 °F 78% 30.07 in 10.0 mi SE 17.3 mph 24.2 mph N/A   Overcast
2:53 PM 69.1 °F - 62.1 °F 78% 30.06 in 10.0 mi SSE 11.5 mph 36.8 mph N/A   Overcast
3:53 PM 69.1 °F - 62.1 °F 78% 30.07 in 10.0 mi SSE 11.5 mph 20.7 mph N/A   Overcast
4:53 PM 68.0 °F - 63.0 °F 84% 30.05 in 10.0 mi SSE 11.5 mph 26.5 mph N/A   Overcast
5:53 PM 66.9 °F - 64.0 °F 90% 30.05 in 9.0 mi SSE 8.1 mph 21.9 mph 0.00 in   Overcast
6:07 PM 66.2 °F - 64.4 °F 94% 30.06 in 9.0 mi South 11.5 mph 20.7 mph N/A   Overcast
6:53 PM 66.9 °F - 64.0 °F 90% 30.05 in 9.0 mi SSE 12.7 mph 20.7 mph 0.00 in   Overcast
7:45 PM 68.0 °F - 64.4 °F 88% 30.05 in 9.0 mi South 12.7 mph 25.3 mph N/A Thunderstorm Overcast
7:53 PM 68.0 °F - 64.9 °F 90% 30.06 in 9.0 mi South 13.8 mph 20.7 mph N/A Thunderstorm Overcast
8:00 PM 69.8 °F - 64.4 °F 83% 30.07 in 9.0 mi South 13.8 mph 24.2 mph N/A   Overcast
8:53 PM 70.0 °F - 66.0 °F 87% 30.06 in 9.0 mi South 13.8 mph 27.6 mph N/A Thunderstorm Overcast
9:29 PM 69.8 °F - 66.2 °F 88% 30.07 in 8.0 mi South 16.1 mph 27.6 mph N/A   Overcast
9:53 PM 70.0 °F - 66.9 °F 90% 30.07 in 8.0 mi South 15.0 mph 24.2 mph N/A   Overcast
10:53 PM 71.1 °F - 66.9 °F 87% 30.06 in 9.0 mi South 18.4 mph 27.6 mph N/A   Overcast
11:53 PM 71.1 °F - 68.0 °F 90% 30.06 in 9.0 mi South 13.8 mph 27.6 mph 0.00 in Rain Light Rain